Deming, NM

1:38 PM MDT on August 24, 2016 (GMT -0600)
Deming Municipal

Weather History for KDMN - April, 2014

Change the Weather History Date:

Wednesday, April 16, 2014

  Actual Average Record
Temperature  
Mean Temperature 58 °F 60 °F  
Max Temperature 81 °F 78 °F 92 °F (1948)
Min Temperature 35 °F 42 °F 28 °F (1983)
Degree Days  
Heating Degree Days 8    
Growing Degree Days 8 (Base 50)    
Moisture  
Dew Point 4 °F    
Average Humidity 15    
Maximum Humidity 27    
Minimum Humidity 3    
Precipitation  
Precipitation 0.00 in 0.02 in 0.28 in (1988)
Month to date precipitation 0.00 0.20  
Year to date precipitation 0.37 1.82  
Sea Level Pressure  
Sea Level Pressure 29.72 in    
Wind  
Wind Speed 11 mph (WNW)    
Max Wind Speed 28 mph    
Max Gust Speed 39 mph    
Visibility 10 miles    
Events      
T = Trace of Precipitation, MM = Missing Value Source: NWS Daily Summary

Daily Weather History Graph

Daily Weather History Graph

Search for Another Location

Airport or City:

Trip Planner

Search our weather history database for the weather conditions in past years. The results will help you decide how hot, cold, wet, or windy it might be!

Date:

Astronomy

Apr. 16, 2014 Rise Set
Actual Time 6:40 AM MDT 7:41 PM MDT
Civil Twilight 6:15 AM MDT 8:06 PM MDT
Nautical Twilight 5:45 AM MDT 8:36 PM MDT
Astronomical Twilight 5:14 AM MDT 9:07 PM MDT
Moon 9:22 PM MDT (4/16) 7:33 AM MDT (4/16)
Length of Visible Light 13h 51m
Length of Day
13h 00m
Full, 98% of the Moon is Illuminated
Apr 16
Full
Apr 22
Last Quarter
Apr 29
New
May 6
First Quarter
May 14
Full

Hourly Weather History & Observations

Time (MDT) Temp. Windchill Dew Point Humidity Pressure Visibility Wind Dir Wind Speed Gust Speed Precip Events Conditions
12:53 AM 48.9 °F - 5.0 °F 17% 29.81 in 10.0 mi NNE 6.9 mph - N/A   Clear
1:53 AM 45.0 °F 41.8 °F 7.0 °F 21% 29.79 in 10.0 mi NW 5.8 mph - N/A   Clear
2:53 AM 43.0 °F 38.8 °F 3.9 °F 20% 29.77 in 10.0 mi NNW 6.9 mph - N/A   Clear
3:53 AM 39.9 °F 35.8 °F 5.0 °F 23% 29.76 in 10.0 mi NW 5.8 mph - N/A   Clear
4:53 AM 39.0 °F 34.8 °F 9.0 °F 29% 29.76 in 10.0 mi West 5.8 mph - N/A   Clear
5:53 AM 37.0 °F 32.4 °F 6.1 °F 28% 29.77 in 10.0 mi WNW 5.8 mph - N/A   Clear
6:53 AM 35.1 °F - 5.0 °F 28% 29.79 in 10.0 mi Calm Calm - N/A   Clear
7:53 AM 42.1 °F - 9.0 °F 26% 29.79 in 10.0 mi Calm Calm - N/A   Clear
8:53 AM 52.0 °F - 10.0 °F 19% 29.79 in 10.0 mi West 3.5 mph - N/A   Clear
9:53 AM 62.1 °F - 10.0 °F 13% 29.77 in 10.0 mi Calm Calm - N/A   Clear
10:53 AM 70.0 °F - 10.0 °F 10% 29.76 in 10.0 mi SW 9.2 mph - N/A   Clear
11:53 AM 75.0 °F - 7.0 °F 7% 29.72 in 10.0 mi WSW 17.3 mph 21.9 mph N/A   Clear
12:53 PM 79.0 °F - 3.0 °F 5% 29.68 in 10.0 mi WSW 16.1 mph 28.8 mph N/A   Clear
1:53 PM 80.1 °F - -0.0 °F 4% 29.67 in 10.0 mi WSW 18.4 mph 28.8 mph N/A   Clear
3:53 PM 80.1 °F - -2.9 °F 4% 29.64 in 10.0 mi West 19.6 mph 34.5 mph N/A   Clear
4:53 PM 80.1 °F - -2.9 °F 4% 29.62 in 10.0 mi West 21.9 mph 28.8 mph N/A   Clear
5:53 PM 79.0 °F - -2.0 °F 4% 29.63 in 10.0 mi West 17.3 mph 28.8 mph N/A   Clear
6:53 PM 77.0 °F - -0.0 °F 5% 29.64 in 10.0 mi West 17.3 mph 24.2 mph N/A   Clear
7:53 PM 73.0 °F - 1.0 °F 6% 29.65 in 10.0 mi West 13.8 mph - N/A   Clear
8:53 PM 69.1 °F - 3.9 °F 8% 29.66 in 10.0 mi NW 9.2 mph - N/A   Clear
9:53 PM 66.0 °F - 5.0 °F 9% 29.67 in 10.0 mi WNW 10.4 mph - N/A   Clear
10:53 PM 64.0 °F - 3.0 °F 9% 29.68 in 10.0 mi WNW 13.8 mph - N/A   Clear
11:53 PM 57.9 °F - 1.0 °F 10% 29.71 in 10.0 mi NW 10.4 mph - N/A   Clear